Location: St. Louis
(38.6270°N, 90.1994°W)
Time: 08:35:51
(UTC-06:00)

Transit 4A - Pass Details

Date: 06 December 2021
Orbit: 864 x 981 km, 66.8° (Epoch: 19 January)

Event Time Altitude Azimuth Distance (km) Brightness Sun altitude
Rises 02:39:06 0° 340° (NNW) 3,615 - -51.0°
Reaches altitude 10° 02:42:01 10° 351° (N) 2,685 - -50.4°
Maximum altitude 02:47:23 29° 50° (NE) 1,708 - -49.4°
Exits shadow 02:52:18 12° 106° (ESE) 2,576 10.6 -48.5°
Drops below altitude 10° 02:52:47 10° 108° (ESE) 2,720 10.8 -48.4°
Sets 02:55:45 0° 120° (ESE) 3,670 11.5 -47.8°
